{"data":{"norad_id":53080,"epoch":"2026-09-19T22:07:20.747424Z","epoch_age_seconds":122267,"freshness":"FRESH","line1":"1 53080U 22077AP  26262.92176791  .00000638  00000+0  22091-4 0  9998","line2":"2 53080  97.2848  78.6533 0001312  94.2712 265.8681 15.33439987230261","mean_motion":15.33439987,"eccentricity":0.0001312,"inclination_deg":97.2848,"raan_deg":78.6533,"arg_perigee_deg":94.2712,"mean_anomaly_deg":265.8681,"bstar":2.2091e-5,"rev_number":23026,"period_min":93.906511647528,"perigee_km":464.66019688405,"apogee_km":466.45598247558,"semimajor_km":6843.6950896798,"source":"CELESTRAK","updated_at":"2026-09-20T09:00:40.176479Z"}}